TimeCST,TemperatureF,Dew PointF,Humidity,Sea Level PressureIn,VisibilityMPH,Wind Direction,Wind SpeedMPH,Gust SpeedMPH,PrecipitationIn,Events,Conditions,WindDirDegrees,DateUTC
12:15 AM,56.3,40.8,56,29.89,10.0,ESE,4.6,-,N/A,,Clear,120,2013-02-24 06:15:00
12:35 AM,57.6,44.1,61,29.88,10.0,SE,6.9,-,N/A,,Clear,130,2013-02-24 06:35:00
12:55 AM,58.3,45.0,61,29.88,10.0,SE,8.1,-,N/A,,Clear,130,2013-02-24 06:55:00
1:15 AM,58.1,45.5,63,29.87,10.0,SE,6.9,-,N/A,,Clear,130,2013-02-24 07:15:00
1:35 AM,58.1,45.5,63,29.86,10.0,East,8.1,-,N/A,,Clear,100,2013-02-24 07:35:00
1:55 AM,57.4,45.5,65,29.86,10.0,ESE,6.9,-,N/A,,Clear,120,2013-02-24 07:55:00
2:15 AM,57.2,45.7,65,29.86,10.0,SSE,5.8,-,N/A,,Clear,150,2013-02-24 08:15:00
2:35 AM,56.5,45.9,68,29.85,10.0,SE,5.8,-,N/A,,Clear,140,2013-02-24 08:35:00
2:55 AM,56.3,46.0,68,29.85,10.0,SE,4.6,-,N/A,,Clear,140,2013-02-24 08:55:00
3:15 AM,55.4,46.0,71,29.84,10.0,SE,4.6,-,N/A,,Clear,140,2013-02-24 09:15:00
3:35 AM,55.0,45.9,71,29.84,10.0,SE,3.5,-,N/A,,Clear,130,2013-02-24 09:35:00
3:55 AM,53.8,45.5,74,29.84,10.0,SE,4.6,-,N/A,,Clear,140,2013-02-24 09:55:00
4:15 AM,54.1,46.0,74,29.83,10.0,SE,4.6,-,N/A,,Clear,140,2013-02-24 10:15:00
4:35 AM,53.6,46.4,77,29.82,10.0,ESE,4.6,-,N/A,,Clear,120,2013-02-24 10:35:00
4:55 AM,53.1,46.9,80,29.82,10.0,ESE,4.6,-,N/A,,Clear,110,2013-02-24 10:55:00
5:15 AM,53.2,48.7,85,29.82,10.0,SE,4.6,-,N/A,,Clear,130,2013-02-24 11:15:00
5:35 AM,54.1,51.4,91,29.81,7.0,ESE,4.6,-,N/A,,Mostly Cloudy,110,2013-02-24 11:35:00
5:55 AM,55.6,53.1,91,29.81,7.0,ESE,4.6,-,N/A,,Overcast,120,2013-02-24 11:55:00
6:15 AM,56.5,54.0,91,29.81,7.0,ESE,6.9,-,N/A,,Overcast,120,2013-02-24 12:15:00
6:35 AM,57.2,54.0,89,29.81,7.0,ESE,5.8,-,N/A,,Overcast,120,2013-02-24 12:35:00
6:55 AM,57.7,54.0,87,29.82,7.0,SE,3.5,-,N/A,,Overcast,140,2013-02-24 12:55:00
7:15 AM,58.3,54.1,86,29.83,7.0,SSE,3.5,-,N/A,,Overcast,150,2013-02-24 13:15:00
7:35 AM,59.0,54.1,84,29.83,7.0,SSE,3.5,-,N/A,,Overcast,160,2013-02-24 13:35:00
7:55 AM,59.7,54.5,83,29.83,7.0,SSE,5.8,-,N/A,,Overcast,150,2013-02-24 13:55:00
8:15 AM,60.8,54.5,80,29.84,7.0,SE,4.6,-,N/A,,Overcast,140,2013-02-24 14:15:00
8:35 AM,61.2,54.1,78,29.84,10.0,SE,9.2,-,N/A,,Overcast,140,2013-02-24 14:35:00
8:55 AM,61.7,54.0,76,29.85,10.0,SE,8.1,-,N/A,,Overcast,140,2013-02-24 14:55:00
9:15 AM,62.6,54.0,73,29.85,10.0,SSE,9.2,-,N/A,,Overcast,150,2013-02-24 15:15:00
9:35 AM,63.0,54.1,73,29.84,10.0,SE,6.9,-,N/A,,Overcast,140,2013-02-24 15:35:00
9:55 AM,63.5,54.5,72,29.85,10.0,SSE,9.2,-,N/A,,Overcast,150,2013-02-24 15:55:00
10:15 AM,63.9,54.5,72,29.85,10.0,SE,9.2,-,N/A,,Overcast,140,2013-02-24 16:15:00
10:35 AM,64.4,54.9,71,29.84,10.0,SE,9.2,-,N/A,,Overcast,140,2013-02-24 16:35:00
10:55 AM,64.4,55.4,73,29.84,10.0,ESE,9.2,-,N/A,,Overcast,120,2013-02-24 16:55:00
11:15 AM,64.8,55.6,72,29.83,10.0,SE,6.9,-,N/A,,Overcast,130,2013-02-24 17:15:00
11:35 AM,65.3,55.6,71,29.82,10.0,SE,8.1,-,N/A,,Overcast,130,2013-02-24 17:35:00
11:55 AM,66.6,55.8,68,29.81,10.0,ESE,6.9,-,N/A,,Overcast,120,2013-02-24 17:55:00
12:15 PM,70.0,55.6,60,29.79,10.0,SSE,8.1,-,N/A,,Mostly Cloudy,160,2013-02-24 18:15:00
12:35 PM,70.5,55.2,58,29.78,10.0,SE,10.4,-,N/A,,Mostly Cloudy,130,2013-02-24 18:35:00
12:55 PM,72.0,54.7,54,29.76,10.0,SSE,8.1,-,N/A,,Mostly Cloudy,150,2013-02-24 18:55:00
1:15 PM,72.7,55.2,54,29.73,10.0,SE,12.7,-,N/A,,Mostly Cloudy,130,2013-02-24 19:15:00
1:35 PM,75.2,55.2,50,29.72,10.0,ESE,11.5,-,N/A,,Overcast,120,2013-02-24 19:35:00
1:55 PM,75.7,55.6,49,29.70,10.0,ESE,10.4,-,N/A,,Overcast,120,2013-02-24 19:55:00
2:15 PM,77.2,55.9,48,29.69,10.0,SE,10.4,16.1,N/A,,Overcast,130,2013-02-24 20:15:00
2:35 PM,77.9,56.3,47,29.68,10.0,SE,10.4,-,N/A,,Overcast,140,2013-02-24 20:35:00
2:55 PM,80.1,55.8,43,29.66,10.0,ESE,15.0,20.7,N/A,,Mostly Cloudy,120,2013-02-24 20:55:00
3:15 PM,80.1,55.8,43,29.66,10.0,SSE,12.7,19.6,N/A,,Scattered Clouds,160,2013-02-24 21:15:00
3:35 PM,79.3,55.9,44,29.65,10.0,SE,11.5,16.1,N/A,,Scattered Clouds,140,2013-02-24 21:35:00
3:55 PM,79.0,55.9,45,29.65,10.0,ESE,11.5,19.6,N/A,,Scattered Clouds,120,2013-02-24 21:55:00
4:15 PM,79.2,56.3,45,29.63,10.0,SE,12.7,17.3,N/A,,Scattered Clouds,140,2013-02-24 22:15:00
4:35 PM,79.3,56.1,45,29.61,10.0,SE,9.2,20.7,N/A,,Clear,130,2013-02-24 22:35:00
4:55 PM,78.3,56.5,47,29.61,10.0,SE,13.8,19.6,N/A,,Clear,130,2013-02-24 22:55:00
5:15 PM,77.9,56.7,48,29.61,10.0,SE,12.7,17.3,N/A,,Clear,140,2013-02-24 23:15:00
5:35 PM,78.1,56.5,47,29.61,10.0,SE,13.8,19.6,N/A,,Clear,140,2013-02-24 23:35:00
5:55 PM,77.0,56.5,49,29.60,10.0,SE,12.7,21.9,N/A,,Clear,140,2013-02-24 23:55:00
6:15 PM,76.5,56.7,50,29.61,10.0,SE,9.2,-,N/A,,Clear,140,2013-02-25 00:15:00
6:35 PM,76.1,57.2,52,29.63,10.0,SE,10.4,-,N/A,,Clear,130,2013-02-25 00:35:00
6:55 PM,75.4,58.1,55,29.63,10.0,SE,6.9,-,N/A,,Clear,140,2013-02-25 00:55:00
7:15 PM,74.5,58.1,57,29.64,10.0,ESE,6.9,-,N/A,,Clear,120,2013-02-25 01:15:00
7:35 PM,73.2,58.5,60,29.63,10.0,ESE,6.9,-,N/A,,Clear,120,2013-02-25 01:35:00
7:55 PM,72.5,58.6,62,29.63,10.0,East,6.9,-,N/A,,Clear,100,2013-02-25 01:55:00
8:15 PM,71.6,58.8,64,29.64,10.0,ENE,5.8,-,N/A,,Clear,70,2013-02-25 02:15:00
8:35 PM,70.7,59.0,66,29.63,10.0,East,8.1,-,N/A,,Clear,100,2013-02-25 02:35:00
8:55 PM,70.7,59.4,67,29.63,10.0,East,8.1,-,N/A,,Clear,90,2013-02-25 02:55:00
10:35 PM,67.3,60.8,80,29.61,10.0,ESE,5.8,-,N/A,,Clear,120,2013-02-25 04:35:00
10:55 PM,66.7,61.5,83,29.60,10.0,ESE,5.8,-,N/A,,Clear,120,2013-02-25 04:55:00
11:15 PM,67.3,62.1,83,29.60,7.0,SE,6.9,-,N/A,,Clear,130,2013-02-25 05:15:00
11:35 PM,68.0,61.7,80,29.60,10.0,SE,6.9,-,N/A,,Clear,130,2013-02-25 05:35:00
11:55 PM,67.1,61.3,82,29.58,10.0,SSE,8.1,-,N/A,,Clear,150,2013-02-25 05:55:00